EW9532 Weather Reports


time (UTC)temp
F
wind
direction
speed
knots
gust
knots
rain 1hr
in
rain 24hr
in
rain mn
in
humidity
%
barometer
mb
20260904182003 100 191 3.5 7.8 0.00 0.00 0.00 46 1012.7
20260904181603 99 0 2.6 10.4 0.00 0.00 0.00 49 1013.0
20260904181502 100 53 3.5 8.7 0.00 0.00 0.00 47 1012.9
20260904181001 100 235 3.5 8.7 0.00 0.00 0.00 45 1013.0
20260904180731 99 264 2.6 9.6 0.00 0.00 0.00 47 1013.0
20260904180119 99 112 3.5 9.6 0.00 0.00 0.00 46 1013.2
20260904180001 99 126 3.5 9.6 0.00 0.00 0.00 47 1013.0
20260904175502 99 34 1.7 7.0 0.00 0.00 0.00 50 1013.1
20260904175001 98 307 4.3 7.0 0.00 0.00 0.00 49 1013.3
20260904174609 98 33 2.6 8.7 0.00 0.00 0.00 49 1013.6
20260904174501 98 200 3.5 8.7 0.00 0.00 0.00 49 1013.4
20260904174000 98 221 4.3 8.7 0.00 0.00 0.00 49 1013.4
20260904173501 98 44 5.2 7.8 0.00 0.00 0.00 49 1013.4
20260904173102 97 316 2.6 9.6 0.00 0.00 0.00 50 1013.7
20260904173003 98 40 1.7 9.6 0.00 0.00 0.00 50 1013.6
20260904172738 97 302 4.3 9.6 0.00 0.00 0.00 52 1013.5
20260904172002 96 228 3.5 7.8 0.00 0.00 0.00 52 1013.6
20260904171556 96 321 2.6 7.0 0.00 0.00 0.00 52 1013.9
20260904171502 97 15 2.6 7.0 0.00 0.00 0.00 53 1013.8
20260904171001 96 345 2.6 8.7 0.00 0.00 0.00 54 1013.8
20260904170500 96 209 4.3 8.7 0.00 0.00 0.00 55 1013.9
20260904170058 95 180 2.6 8.7 0.00 0.00 0.00 55 1014.1
20260904170002 95 164 3.5 8.7 0.00 0.00 0.00 56 1013.9
20260904165501 95 295 4.3 10.4 0.00 0.00 0.00 55 1014.1
20260904165001 95 335 3.5 10.4 0.00 0.00 0.00 56 1014.0
20260904164607 94 235 3.5 9.6 0.00 0.00 0.00 56 1014.1
20260904164501 95 25 4.3 7.8 0.00 0.00 0.00 58 1014.0
20260904163959 95 124 3.5 11.3 0.00 0.00 0.00 58 1014.0
20260904163454 94 319 3.5 11.3 0.00 0.00 0.00 59 1013.9
20260904163214 94 292 4.3 9.6 0.00 0.00 0.00 59 1014.0
20260904163059 94 64 3.5 9.6 0.00 0.00 0.00 59 1014.1
20260904162445 94 230 2.6 8.7 0.00 0.00 0.00 62 1014.0
20260904162429 94 283 2.6 9.6 0.00 0.00 0.00 60 1014.0
20260904161634 93 84 2.6 9.6 0.00 0.00 0.00 61 1014.2
20260904161442 93 279 2.6 9.6 0.00 0.00 0.00 61 1013.9
20260904161204 93 226 2.6 7.8 0.00 0.00 0.00 64 1014.0
20260904160434 93 205 3.5 9.6 0.00 0.00 0.00 62 1014.0
20260904160103 92 13 2.6 8.7 0.00 0.00 0.00 63 1014.2
20260904155931 92 221 3.5 9.6 0.00 0.00 0.00 64 1013.9
20260904155426 92 301 3.5 7.8 0.00 0.00 0.00 66 1014.0
20260904154923 91 229 3.5 7.8 0.00 0.00 0.00 67 1014.1
20260904154641 91 299 3.5 8.7 0.00 0.00 0.00 66 1014.2
20260904154603 91 134 3.5 8.7 0.00 0.00 0.00 66 1014.4
20260904153913 91 62 4.3 9.6 0.00 0.00 0.00 68 1014.2
20260904153408 91 1 4.3 9.6 0.00 0.00 0.00 68 1014.1
20260904153124 91 328 3.5 8.7 0.00 0.00 0.00 70 1014.0
20260904153103 90 46 1.7 7.8 0.00 0.00 0.00 68 1014.2
20260904152401 90 221 2.6 9.6 0.00 0.00 0.00 70 1014.1
20260904151901 89 202 5.2 12.2 0.00 0.00 0.00 71 1014.0
20260904151557 88 241 4.3 12.2 0.00 0.00 0.00 72 1014.2
20260904151401 89 186 5.2 12.2 0.00 0.00 0.00 72 1014.0
20260904150915 89 276 3.5 9.6 0.00 0.00 0.00 74 1014.0
20260904150629 88 278 4.3 9.6 0.00 0.00 0.00 74 1013.9
20260904150127 87 27 3.5 9.6 0.00 0.00 0.00 76 1013.9
20260904150104 87 77 2.6 11.3 0.00 0.00 0.00 75 1014.1
20260904145358 87 311 2.6 10.4 0.00 0.00 0.00 76 1013.9
20260904144850 87 260 3.5 10.4 0.00 0.00 0.00 77 1014.0
20260904144609 86 120 3.5 10.4 0.00 0.00 0.00 76 1014.1
20260904144344 86 274 2.6 11.3 0.00 0.00 0.00 77 1014.0
20260904143840 86 156 3.5 11.3 0.00 0.00 0.00 78 1013.9
20260904143335 87 18 2.6 9.6 0.00 0.00 0.00 78 1014.0
20260904143100 86 82 2.6 7.8 0.00 0.00 0.00 78 1014.1
20260904142830 86 23 2.6 7.8 0.00 0.00 0.00 78 1014.0
20260904142551 86 316 2.6 7.0 0.00 0.00 0.00 79 1013.9
20260904141830 86 216 3.5 7.0 0.00 0.00 0.00 79 1013.8
20260904141553 85 317 3.5 7.8 0.00 0.00 0.00 80 1014.0
20260904141331 86 92 3.5 7.0 0.00 0.00 0.00 80 1013.8
20260904140829 85 193 2.6 7.8 0.00 0.00 0.00 81 1013.8
20260904140811 85 285 2.6 7.8 0.00 0.00 0.00 81 1013.9
20260904140105 85 295 2.6 7.0 0.00 0.00 0.00 81 1014.1
20260904135828 85 315 1.7 7.0 0.00 0.00 0.00 81 1013.8
20260904135330 85 264 2.6 7.0 0.00 0.00 0.00 82 1013.8
20260904134828 84 191 2.6 7.8 0.00 0.00 0.00 83 1013.8
20260904134609 84 231 1.7 7.8 0.00 0.00 0.00 82 1014.0
20260904134329 84 108 1.7 7.8 0.00 0.00 0.00 83 1013.8
20260904133829 84 4 2.6 7.8 0.00 0.00 0.00 83 1013.7
20260904133328 84 162 2.6 7.0 0.00 0.00 0.00 83 1013.7
20260904133109 83 120 1.7 6.1 0.00 0.00 0.00 83 1013.8
20260904132829 84 263 1.7 6.1 0.00 0.00 0.00 83 1013.7
20260904132329 84 172 1.7 6.1 0.00 0.00 0.00 84 1013.8
20260904131829 83 113 0.9 4.3 0.00 0.00 0.00 84 1013.6
20260904131554 83 293 0.9 4.3 0.00 0.00 0.00 84 1013.8
20260904131329 83 233 1.7 4.3 0.00 0.00 0.00 84 1013.6
20260904130829 83 184 1.7 7.0 0.00 0.00 0.00 85 1013.5
20260904130329 83 285 3.5 7.0 0.00 0.00 0.00 85 1013.5
20260904130053 82 159 1.7 5.2 0.00 0.00 0.00 85 1013.7
20260904125828 83 211 0.9 5.2 0.00 0.00 0.00 86 1013.5
20260904125331 83 148 1.7 3.5 0.00 0.00 0.00 86 1013.4
20260904124829 82 240 1.7 3.5 0.00 0.00 0.00 86 1013.3
20260904124635 82 224 0.9 3.5 0.00 0.00 0.00 86 1013.7
20260904124329 82 326 1.7 3.5 0.00 0.00 0.00 87 1013.4
20260904123828 82 138 1.7 3.5 0.00 0.00 0.00 87 1013.5
20260904123328 82 188 1.7 3.5 0.00 0.00 0.00 87 1013.4
20260904123056 81 266 0.9 2.6 0.00 0.00 0.00 86 1013.5
20260904122829 82 307 0.9 2.6 0.00 0.00 0.00 87 1013.2
20260904122330 82 219 1.7 3.5 0.00 0.00 0.00 87 1013.0
20260904121830 82 207 0.9 3.5 0.00 0.00 0.00 87 1012.9
20260904121600 81 250 0.9 4.3 0.00 0.00 0.00 86 1013.0
20260904121331 82 167 1.7 5.2 0.00 0.00 0.00 87 1012.9
20260904120830 82 275 0.9 5.2 0.00 0.00 0.00 87 1012.9
20260904120331 82 245 1.7 2.6 0.00 0.00 0.00 87 1012.7
20260904120118 82 98 0.9 4.3 0.00 0.00 0.00 86 1012.7
20260904120111 81 243 0.9 4.3 0.00 0.00 0.00 86 1013.0
20260904115553 82 314 0.9 4.3 0.00 0.00 0.00 86 1012.6
20260904114830 82 28 2.6 7.8 0.00 0.00 0.00 86 1012.7
20260904114558 81 258 0.9 7.8 0.00 0.00 0.00 86 1012.8
20260904114330 82 333 0.9 7.8 0.00 0.00 0.00 86 1012.5
20260904113830 82 346 0.9 2.6 0.00 0.00 0.00 86 1012.6
20260904113330 82 303 0.9 2.6 0.00 0.00 0.00 86 1012.5
20260904113056 82 56 0.0 1.7 0.00 0.00 0.00 85 1012.8
20260904112829 82 11 0.9 2.6 0.00 0.00 0.00 85 1012.6
20260904112329 82 270 0.0 3.5 0.00 0.00 0.00 85 1012.6
20260904111829 82 247 0.9 3.5 0.00 0.00 0.00 85 1012.5
20260904111603 82 323 0.9 4.3 0.00 0.00 0.00 85 1012.8
20260904111329 82 334 0.9 5.2 0.00 0.00 0.00 85 1012.6
20260904110829 82 206 1.7 5.2 0.00 0.00 0.00 85 1012.6
20260904110552 82 148 1.7 5.2 0.00 0.00 0.00 85 1012.6
20260904110104 82 149 0.9 6.1 0.00 0.00 0.00 84 1012.8
20260904105829 83 240 0.9 5.2 0.00 0.00 0.00 85 1012.6
20260904105328 83 132 1.7 6.1 0.00 0.00 0.00 84 1012.6
20260904105320 83 64 1.7 6.1 0.00 0.00 0.00 84 1012.6
20260904104556 82 203 0.9 3.5 0.00 0.00 0.00 84 1012.9
20260904104329 83 128 1.7 4.3 0.00 0.00 0.00 84 1012.8
20260904103828 83 226 0.9 8.7 0.00 0.00 0.00 84 1012.8
20260904103329 83 253 1.7 4.3 0.00 0.00 0.00 84 1012.5
20260904103131 82 323 1.7 6.1 0.00 0.00 0.00 83 1012.7
20260904103055 82 323 1.7 6.1 0.00 0.00 0.00 83 1012.7
20260904102829 83 122 0.9 6.1 0.00 0.00 0.00 84 1012.5
20260904102328 83 166 1.7 7.0 0.00 0.00 0.00 84 1012.4
20260904101830 83 264 2.6 7.0 0.00 0.00 0.00 83 1012.4
20260904101605 82 82 1.7 7.8 0.00 0.00 0.00 83 1012.6
20260904101330 83 87 1.7 7.0 0.00 0.00 0.00 83 1012.4
20260904100830 83 274 2.6 7.0 0.00 0.00 0.00 83 1012.6
20260904100330 83 321 1.7 6.1 0.00 0.00 0.00 83 1012.5
20260904095830 83 307 2.6 6.1 0.00 0.00 0.00 83 1012.5
20260904095329 83 246 1.7 6.1 0.00 0.00 0.00 83 1012.5
20260904094829 83 236 1.7 6.1 0.00 0.00 0.00 83 1012.6
20260904094556 83 295 0.9 5.2 0.00 0.00 0.00 83 1012.8
20260904094552 83 74 1.7 5.2 0.00 0.00 0.00 83 1012.6
20260904093829 83 290 1.7 5.2 0.00 0.00 0.00 83 1012.6
20260904093329 83 72 2.6 4.3 0.00 0.00 0.00 83 1012.6
20260904093054 83 88 0.9 3.5 0.00 0.00 0.00 83 1012.8
20260904092829 83 167 0.9 3.5 0.00 0.00 0.00 83 1012.6
20260904092554 83 291 1.7 6.1 0.00 0.00 0.00 83 1012.6
20260904092050 83 64 1.7 6.1 0.00 0.00 0.00 83 1012.7
20260904091601 83 198 0.9 5.2 0.00 0.00 0.00 82 1012.8
20260904091329 83 92 0.9 5.2 0.00 0.00 0.00 83 1012.6
20260904090828 83 241 1.7 5.2 0.00 0.00 0.00 83 1012.6
20260904090329 83 42 1.7 3.5 0.00 0.00 0.00 83 1012.6
20260904090131 83 194 1.7 3.5 0.00 0.00 0.00 83 1012.7
20260904090059 83 275 0.9 3.5 0.00 0.00 0.00 82 1012.7
20260904085329 84 1 0.0 4.3 0.00 0.00 0.00 83 1012.6
20260904084829 84 205 0.9 4.3 0.00 0.00 0.00 82 1012.7
20260904084558 83 110 0.9 5.2 0.00 0.00 0.00 82 1012.9
20260904084329 84 321 1.7 6.1 0.00 0.00 0.00 82 1012.8
20260904084052 84 141 1.7 6.1 0.00 0.00 0.00 82 1012.8
20260904083817 84 330 1.7 5.2 0.00 0.00 0.00 82 1012.8
20260904083524 84 356 0.0 6.1 0.00 0.00 0.00 82 1012.9
20260904083105 83 0 1.7 5.2 0.00 0.00 0.00 82 1013.1
20260904082328 84 231 0.9 5.2 0.00 0.00 0.00 82 1012.9
20260904081831 84 1 1.7 7.8 0.00 0.00 0.00 82 1012.9
20260904081605 84 115 0.9 7.0 0.00 0.00 0.00 82 1013.1
20260904081331 84 264 2.6 7.8 0.00 0.00 0.00 82 1012.9
20260904080831 84 158 1.7 5.2 0.00 0.00 0.00 82 1013.0
20260904080330 84 355 0.9 5.2 0.00 0.00 0.00 82 1013.1
20260904080110 84 180 2.6 6.1 0.00 0.00 0.00 82 1013.0
20260904080106 84 118 2.6 7.0 0.00 0.00 0.00 82 1013.2
20260904075328 84 218 2.6 7.0 0.00 0.00 0.00 82 1013.0
20260904074830 84 89 3.5 7.0 0.00 0.00 0.00 82 1013.0
20260904074557 84 6 1.7 7.0 0.00 0.00 0.00 82 1013.3
20260904074329 84 281 1.7 5.2 0.00 0.00 0.00 82 1013.0
20260904073829 84 274 1.7 7.0 0.00 0.00 0.00 82 1013.1
20260904073328 84 75 2.6 7.0 0.00 0.00 0.00 82 1013.1
20260904073107 84 20 2.6 7.8 0.00 0.00 0.00 81 1013.4
20260904072829 84 75 2.6 7.0 0.00 0.00 0.00 82 1013.0
20260904072324 85 72 2.6 6.1 0.00 0.00 0.00 82 1013.2
20260904071821 85 151 3.5 6.1 0.00 0.00 0.00 81 1013.2
20260904071626 84 150 1.7 6.1 0.00 0.00 0.00 81 1013.5
20260904071321 85 304 1.7 7.0 0.00 0.00 0.00 81 1013.3
20260904070815 85 290 3.5 7.0 0.00 0.00 0.00 81 1013.4
20260904070549 85 133 1.7 6.1 0.00 0.00 0.00 81 1013.5
20260904070100 84 125 0.9 7.8 0.00 0.00 0.00 81 1013.6
20260904070039 85 105 1.7 6.1 0.00 0.00 0.00 81 1013.4
20260904065307 85 205 2.6 6.1 0.00 0.00 0.00 81 1013.6
20260904064803 85 56 1.7 8.7 0.00 0.00 0.00 81 1013.5
20260904064607 84 283 2.6 9.6 0.00 0.00 0.00 81 1013.7
20260904064303 85 341 4.3 8.7 0.00 0.00 0.00 81 1013.5
20260904063805 85 306 3.5 7.8 0.00 0.00 0.00 81 1013.4
20260904063302 85 341 2.6 9.6 0.00 0.00 0.00 82 1013.3
20260904063107 84 20 2.6 12.2 0.00 0.00 0.00 81 1013.6
20260904062800 85 259 3.5 9.6 0.00 0.00 0.00 82 1013.3
20260904062535 85 98 1.7 6.1 0.00 0.00 0.00 82 1013.3
20260904061801 85 193 2.6 10.4 0.00 0.00 0.00 82 1013.3
20260904061754 85 333 3.5 10.4 0.00 0.00 0.00 82 1013.3
20260904061601 84 132 1.7 9.6 0.00 0.00 0.00 82 1013.4
20260904060801 85 190 3.5 7.8 0.00 0.00 0.00 82 1013.3
20260904060301 85 214 1.7 7.8 0.00 0.00 0.00 82 1013.2
20260904060121 84 245 2.6 7.0 0.00 0.00 0.00 81 1013.5
20260904055801 85 24 2.6 6.1 0.00 0.00 0.00 81 1013.4
20260904055301 85 51 2.6 6.1 0.00 0.00 0.00 81 1013.2
20260904055034 85 205 1.7 5.2 0.00 0.00 0.00 81 1013.3
20260904054604 85 181 1.7 7.8 0.00 0.00 0.00 81 1013.6
20260904054246 85 357 1.7 5.2 0.00 0.00 0.00 81 1013.3
20260904053745 85 285 1.7 7.0 0.00 0.00 0.00 81 1013.6
20260904053240 85 63 1.7 8.7 0.00 0.00 0.00 81 1013.5
20260904053055 85 335 2.6 7.8 0.00 0.00 0.00 80 1013.6
20260904052734 85 263 3.5 8.7 0.00 0.00 0.00 80 1013.6
20260904052231 85 221 1.7 7.0 0.00 0.00 0.00 80 1013.5
20260904051730 85 228 3.5 12.2 0.00 0.00 0.00 80 1013.6
20260904051552 85 101 2.6 11.3 0.00 0.00 0.00 79 1013.6
20260904051231 85 302 3.5 12.2 0.00 0.00 0.00 80 1013.5
20260904050719 85 330 4.3 7.8 0.00 0.00 0.00 80 1013.6
20260904050212 85 288 2.6 7.0 0.00 0.00 0.00 80 1013.8
20260904050058 85 98 1.7 6.1 0.00 0.00 0.00 79 1013.9
20260904045711 85 25 2.6 7.8 0.00 0.00 0.00 80 1013.8
20260904045207 86 252 1.7 7.8 0.00 0.00 0.00 80 1013.7
20260904044703 86 30 1.7 6.1 0.00 0.00 0.00 80 1013.7
20260904044601 85 186 1.7 7.0 0.00 0.00 0.00 79 1013.9
20260904044205 86 137 1.7 6.1 0.00 0.00 0.00 80 1013.7
20260904043702 86 320 3.5 7.0 0.00 0.00 0.00 79 1013.6
20260904043203 86 79 2.6 7.8 0.00 0.00 0.00 79 1013.6
20260904043112 85 333 2.6 7.0 0.00 0.00 0.00 79 1013.8
20260904042702 86 304 2.6 10.4 0.00 0.00 0.00 79 1013.5
20260904042203 86 179 3.5 10.4 0.00 0.00 0.00 79 1013.6
20260904041702 86 275 4.3 7.8 0.00 0.00 0.00 79 1013.5
20260904041601 85 309 2.6 7.0 0.00 0.00 0.00 78 1013.7
20260904041215 86 207 2.6 7.8 0.00 0.00 0.00 78 1013.4
20260904040708 86 18 3.5 7.8 0.00 0.00 0.00 78 1013.4
20260904040210 86 253 4.3 9.6 0.00 0.00 0.00 78 1013.4
20260904040054 86 330 3.5 10.4 0.00 0.00 0.00 77 1013.6
20260904035925 86 304 2.6 9.6 0.00 0.00 0.00 78 1013.4
20260904035157 86 196 3.5 9.6 0.00 0.00 0.00 77 1013.4
20260904034906 86 295 4.3 12.2 0.00 0.00 0.00 77 1013.3
20260904034853 86 356 3.5 9.6 0.00 0.00 0.00 77 1013.3
20260904034552 86 88 3.5 11.3 0.00 0.00 0.00 77 1013.5
20260904033644 86 315 3.5 10.4 0.00 0.00 0.00 77 1013.2
20260904033140 86 289 3.5 7.8 0.00 0.00 0.00 77 1013.1
20260904033102 86 186 2.6 9.6 0.00 0.00 0.00 76 1013.4
20260904032636 86 307 3.5 7.8 0.00 0.00 0.00 76 1013.0
20260904032132 87 49 3.5 7.8 0.00 0.00 0.00 76 1013.0
20260904031634 87 193 4.3 9.6 0.00 0.00 0.00 76 1013.0
20260904031556 86 306 4.3 9.6 0.00 0.00 0.00 75 1013.2
20260904031131 87 257 5.2 9.6 0.00 0.00 0.00 75 1012.8
20260904030630 87 40 4.3 7.8 0.00 0.00 0.00 75 1012.8
20260904030349 87 226 4.3 7.8 0.00 0.00 0.00 75 1012.7
20260904030103 86 116 3.5 9.6 0.00 0.00 0.00 75 1013.0
20260904025630 87 17 3.5 9.6 0.00 0.00 0.00 75 1012.6
20260904025130 87 197 5.2 9.6 0.00 0.00 0.00 75 1012.6
20260904024851 87 153 2.6 9.6 0.00 0.00 0.00 74 1012.5
20260904024608 87 184 2.6 9.6 0.00 0.00 0.00 74 1012.7
20260904024131 87 124 3.5 11.3 0.00 0.00 0.00 74 1012.5
20260904023630 87 137 3.5 11.3 0.00 0.00 0.00 74 1012.4
20260904023350 87 118 4.3 8.7 0.00 0.00 0.00 73 1012.5
20260904023114 87 314 3.5 8.7 0.00 0.00 0.00 73 1012.7
20260904022630 87 101 4.3 8.7 0.00 0.00 0.00 73 1012.5
20260904022143 88 205 4.3 8.7 0.00 0.00 0.00 72 1012.4
20260904021630 88 262 4.3 8.7 0.00 0.00 0.00 72 1012.3
20260904021557 87 269 4.3 9.6 0.00 0.00 0.00 71 1012.5
20260904021353 88 278 3.5 9.6 0.00 0.00 0.00 71 1012.2
20260904020630 88 174 4.3 9.6 0.00 0.00 0.00 71 1012.0
20260904020131 88 130 3.5 10.4 0.00 0.00 0.00 71 1012.2
20260904015630 88 71 4.3 10.4 0.00 0.00 0.00 71 1012.0
20260904015129 89 51 3.5 7.8 0.00 0.00 0.00 71 1011.9
20260904014628 89 74 3.5 9.6 0.00 0.00 0.00 70 1012.1
20260904014602 88 254 3.5 8.7 0.00 0.00 0.00 70 1012.2
20260904014353 89 118 3.5 9.6 0.00 0.00 0.00 70 1011.9
20260904013629 89 297 3.5 7.8 0.00 0.00 0.00 69 1011.7
20260904013129 89 147 2.6 10.4 0.00 0.00 0.00 69 1011.6
20260904013126 89 102 3.5 13.0 0.00 0.00 0.00 68 1011.8
20260904012628 89 281 6.1 10.4 0.00 0.00 0.00 68 1011.4
20260904012129 90 281 2.6 8.7 0.00 0.00 0.00 68 1011.4
20260904011629 90 158 4.3 10.4 0.00 0.00 0.00 67 1011.3
20260904011601 90 177 3.5 10.4 0.00 0.00 0.00 67 1011.6
20260904011129 90 356 4.3 10.4 0.00 0.00 0.00 67 1011.4
20260904010629 90 62 4.3 11.3 0.00 0.00 0.00 66 1011.3
20260904010347 91 233 6.1 13.9 0.00 0.00 0.00 65 1011.1
20260904010101 90 96 6.1 13.0 0.00 0.00 0.00 64 1011.5
20260904005629 91 328 4.3 13.9 0.00 0.00 0.00 64 1011.2
20260904005131 92 212 3.5 12.2 0.00 0.00 0.00 63 1011.1
20260904004629 92 210 6.1 12.2 0.00 0.00 0.00 63 1011.1
20260904004603 91 49 6.1 12.2 0.00 0.00 0.00 62 1011.3
20260904004129 92 225 5.2 9.6 0.00 0.00 0.00 61 1011.0
20260904003630 92 205 4.3 11.3 0.00 0.00 0.00 61 1011.0
20260904003617 93 295 5.2 11.3 0.00 0.00 0.00 60 1011.0
20260904003053 93 169 5.2 11.3 0.00 0.00 0.00 59 1011.3
20260904002628 94 80 3.5 11.3 0.00 0.00 0.00 59 1010.9
20260904002128 94 1 5.2 11.3 0.00 0.00 0.00 58 1010.9
20260904001629 95 307 3.5 10.4 0.00 0.00 0.00 57 1010.8
20260904001610 94 302 3.5 7.8 0.00 0.00 0.00 56 1011.2
20260904001129 95 122 2.6 8.7 0.00 0.00 0.00 56 1010.8
20260904000630 95 257 5.2 11.3 0.00 0.00 0.00 55 1010.8
20260904000129 95 304 5.2 11.3 0.00 0.00 0.00 54 1010.7
20260904000103 95 231 5.2 10.4 0.00 0.00 0.00 53 1011.1
20260903235629 96 326 5.2 10.4 0.00 0.00 0.00 53 1010.7
20260903235336 97 248 3.5 9.6 0.00 0.00 0.00 51 1010.7
20260903235324 96 13 5.2 10.4 0.00 0.00 0.00 52 1010.7
20260903234556 96 354 1.7 10.4 0.00 0.00 0.00 51 1010.9
20260903234129 97 302 5.2 11.3 0.00 0.00 0.00 49 1010.6
20260903233630 97 274 5.2 11.3 0.00 0.00 0.00 49 1010.7
20260903233349 97 286 4.3 10.4 0.00 0.00 0.00 49 1010.5
20260903233106 97 332 3.5 11.3 0.00 0.00 0.00 48 1010.9
20260903232609 97 60 4.3 10.4 0.00 0.00 0.00 50 1010.5
20260903232109 98 173 5.2 10.4 0.00 0.00 0.00 50 1010.4
20260903231609 98 159 5.2 13.0 0.00 0.00 0.00 49 1010.8
20260903231605 98 28 6.1 11.3 0.00 0.00 0.00 50 1010.4
20260903231101 98 283 5.2 13.9 0.00 0.00 0.00 50 1010.3
20260903230601 99 257 4.3 12.2 0.00 0.00 0.00 49 1010.3
20260903230057 99 168 2.6 11.3 0.00 0.00 0.00 49 1010.6
20260903225601 99 170 7.0 11.3 0.00 0.00 0.00 49 1009.9
20260903225101 100 227 3.5 9.6 0.00 0.00 0.00 48 1009.9
20260903224604 99 91 4.3 13.0 0.00 0.00 0.00 47 1010.1
20260903224600 100 167 4.3 11.3 0.00 0.00 0.00 47 1009.9
20260903224101 100 305 5.2 11.3 0.00 0.00 0.00 46 1009.8
20260903223550 101 111 5.2 10.4 0.00 0.00 0.00 45 1009.7
20260903223112 101 283 4.3 12.2 0.00 0.00 0.00 44 1009.9
20260903223045 101 77 4.3 9.6 0.00 0.00 0.00 44 1009.6
20260903222541 102 357 3.5 10.4 0.00 0.00 0.00 43 1009.7
20260903222039 103 304 2.6 10.4 0.00 0.00 0.00 43 1009.7
20260903221555 102 179 3.5 8.7 0.00 0.00 0.00 42 1010.0
20260903221535 103 95 3.5 7.8 0.00 0.00 0.00 42 1009.7
20260903221030 102 240 4.3 11.3 0.00 0.00 0.00 42 1009.7
20260903220529 102 266 3.5 11.3 0.00 0.00 0.00 42 1009.4
20260903220059 102 287 3.5 7.0 0.00 0.00 0.00 41 1009.8
20260903220029 102 335 4.3 7.8 0.00 0.00 0.00 42 1009.5
20260903215529 103 18 2.6 7.8 0.00 0.00 0.00 42 1009.5
20260903215029 103 71 4.3 8.7 0.00 0.00 0.00 41 1009.5
20260903214759 103 62 4.3 8.7 0.00 0.00 0.00 42 1009.4
20260903214553 102 292 2.6 7.8 0.00 0.00 0.00 41 1009.7
20260903214028 102 344 4.3 7.8 0.00 0.00 0.00 42 1009.6
20260903213530 103 242 2.6 8.7 0.00 0.00 0.00 42 1009.5
20260903213143 102 78 3.5 10.4 0.00 0.00 0.00 42 1009.9
20260903213031 103 86 3.5 10.4 0.00 0.00 0.00 42 1009.6
20260903212529 102 343 2.6 10.4 0.00 0.00 0.00 44 1009.6
20260903212029 102 16 2.6 9.6 0.00 0.00 0.00 44 1009.6
20260903211752 102 53 4.3 8.7 0.00 0.00 0.00 44 1009.6
20260903211556 102 25 4.3 9.6 0.00 0.00 0.00 44 1009.9
20260903211028 103 198 4.3 7.8 0.00 0.00 0.00 43 1009.7
20260903210529 102 289 3.5 9.6 0.00 0.00 0.00 44 1009.7
20260903210058 104 238 3.5 10.4 0.00 0.00 0.00 42 1010.1
20260903210029 104 287 5.2 9.6 0.00 0.00 0.00 42 1009.8
20260903205530 104 281 2.6 7.8 0.00 0.00 0.00 43 1009.8
20260903205029 103 307 3.5 7.8 0.00 0.00 0.00 45 1009.9
20260903204553 103 87 3.5 7.8 0.00 0.00 0.00 45 1010.2
20260903204529 103 215 3.5 7.8 0.00 0.00 0.00 46 1009.9
20260903204253 103 44 3.5 8.7 0.00 0.00 0.00 45 1010.1
20260903203756 103 335 3.5 8.7 0.00 0.00 0.00 46 1009.9
20260903203059 103 157 2.6 7.8 0.00 0.00 0.00 44 1010.3
20260903203043 104 346 3.5 7.8 0.00 0.00 0.00 44 1010.0
20260903202534 104 150 2.6 7.8 0.00 0.00 0.00 45 1010.1
20260903202042 104 213 3.5 7.0 0.00 0.00 0.00 46 1010.0
20260903201606 103 297 2.6 7.0 0.00 0.00 0.00 45 1010.5
20260903201543 103 72 3.5 7.8 0.00 0.00 0.00 45 1010.2
20260903201259 103 3 3.5 7.8 0.00 0.00 0.00 46 1010.2
20260903200526 103 321 2.6 6.1 0.00 0.00 0.00 47 1010.4
20260903200243 103 219 2.6 6.1 0.00 0.00 0.00 45 1010.3
20260903200056 103 169 2.6 6.1 0.00 0.00 0.00 45 1010.6
20260903195522 105 226 2.6 7.0 0.00 0.00 0.00 44 1010.4
20260903195016 104 236 2.6 7.0 0.00 0.00 0.00 44 1010.5
20260903194626 103 333 1.7 7.0 0.00 0.00 0.00 44 1010.9
20260903194517 104 58 1.7 7.0 0.00 0.00 0.00 43 1010.5
20260903194227 104 161 3.5 6.1 0.00 0.00 0.00 43 1010.6
20260903193509 103 11 1.7 6.1 0.00 0.00 0.00 44 1010.8
20260903193101 102 328 3.5 7.0 0.00 0.00 0.00 43 1011.1
20260903193008 103 356 3.5 6.1 0.00 0.00 0.00 44 1010.9
20260903192508 103 63 3.5 6.1 0.00 0.00 0.00 44 1010.8
20260903192006 103 270 3.5 7.0 0.00 0.00 0.00 44 1011.0
20260903191554 103 185 0.9 7.8 0.00 0.00 0.00 45 1011.3
20260903191506 103 208 1.7 7.8 0.00 0.00 0.00 45 1011.1
20260903191000 103 143 1.7 7.8 0.00 0.00 0.00 44 1011.1
20260903190454 103 313 1.7 7.0 0.00 0.00 0.00 45 1011.3
20260903190218 103 26 3.5 7.0 0.00 0.00 0.00 44 1011.3
20260903190054 102 42 3.5 7.0 0.00 0.00 0.00 45 1011.7
20260903185447 103 304 1.7 5.2 0.00 0.00 0.00 46 1011.6
20260903184942 103 245 1.7 4.3 0.00 0.00 0.00 45 1011.7
20260903184557 102 280 1.7 7.8 0.00 0.00 0.00 46 1011.9
20260903184438 102 301 1.7 7.8 0.00 0.00 0.00 47 1011.8
20260903183933 101 293 2.6 9.6 0.00 0.00 0.00 48 1011.8
20260903183432 101 143 5.2 9.6 0.00 0.00 0.00 47 1011.9
20260903183131 100 5 2.6 7.0 0.00 0.00 0.00 47 1012.2
20260903182946 101 349 3.5 7.8 0.00 0.00 0.00 47 1012.0
20260903182431 101 98 1.7 7.8 0.00 0.00 0.00 48 1012.2